DW1454 Weather Reports


Display with metric or nautical units.
time (UTC)temp
F
wind
direction
speed
MPH
gust
MPH
rain 1hr
in
rain 24hr
in
rain mn
in
humidity
%
barometer
mb
20260504082005 32 0.0 0.0 0.00 0.00 0.00 51 1017.8
20260504081006 32 0.0 0.0 0.00 0.00 0.00 50 1017.8
20260504050006 43 0.0 0.0 0.00 0.00 0.00 39 1017.9
20260504045217 44 0.0 0.0 0.00 0.00 0.00 38 1018.0
20260504044005 45 0.0 0.0 0.00 0.00 0.00 37 1018.1
20260504043006 46 0.0 0.0 0.00 0.00 0.00 36 1018.1
20260504042006 47 0.0 0.0 0.00 0.00 0.00 35 1018.1
20260504041005 47 0.0 0.0 0.00 0.00 0.00 35 1018.2
20260504040006 47 0.0 0.0 0.00 0.00 0.00 34 1018.2
20260504035216 48 0.0 0.0 0.00 0.00 0.00 34 1018.3
20260504034006 47 0.0 0.0 0.00 0.00 0.00 34 1018.2
20260504033216 48 0.0 0.0 0.00 0.00 0.00 34 1018.3
20260504032005 48 0.0 0.0 0.00 0.00 0.00 34 1018.3
20260504031005 48 0.0 0.0 0.00 0.00 0.00 34 1018.4
20260504030005 48 0.0 0.0 0.00 0.00 0.00 34 1018.4
20260504025216 48 0.0 0.0 0.00 0.00 0.00 34 1018.5
20260504024006 48 0.0 0.0 0.00 0.00 0.00 34 1018.4
20260504023006 49 0.0 0.0 0.00 0.00 0.00 34 1018.5
20260504022216 49 0.0 0.0 0.00 0.00 0.00 34 1018.7
20260504021006 49 0.0 0.0 0.00 0.00 0.00 34 1018.6
20260504020006 49 0.0 0.0 0.00 0.00 0.00 34 1018.6
20260504015005 48 0.0 0.0 0.00 0.00 0.00 35 1018.6
20260504014216 48 0.0 0.0 0.00 0.00 0.00 34 1018.7
20260504013006 48 0.0 0.0 0.00 0.00 0.00 34 1018.8
20260504012006 49 0.0 0.0 0.00 0.00 0.00 33 1018.9
20260504011006 49 0.0 0.0 0.00 0.00 0.00 33 1018.9
20260504010215 49 0.0 0.0 0.00 0.00 0.00 33 1018.9
20260504005005 49 0.0 0.0 0.00 0.00 0.00 33 1019.0
20260504004006 49 0.0 0.0 0.00 0.00 0.00 33 1019.0
20260504003007 50 0.0 0.0 0.00 0.00 0.00 33 1019.0
20260504002006 50 0.0 0.0 0.00 0.00 0.00 33 1019.1
20260504001217 49 0.0 0.0 0.00 0.00 0.00 32 1019.2
20260504000219 51 0.0 0.0 0.00 0.00 0.00 31 1019.2
20260503235006 51 0.0 0.0 0.00 0.00 0.00 32 1019.2
20260503234006 51 0.0 0.0 0.00 0.00 0.00 32 1019.3
20260503233005 50 0.0 0.0 0.00 0.00 0.00 32 1019.3
20260503232005 50 0.0 0.0 0.00 0.00 0.00 32 1019.3
20260503231005 50 0.0 0.0 0.00 0.00 0.00 34 1019.3
20260503230006 50 0.0 0.0 0.00 0.00 0.00 35 1019.5
20260503225005 49 0.0 0.0 0.00 0.00 0.00 34 1019.7
20260503224005 50 0.0 0.0 0.00 0.00 0.00 35 1019.8
20260503223006 49 0.0 0.0 0.00 0.00 0.00 35 1019.8
20260503222216 49 0.0 0.0 0.00 0.00 0.00 35 1019.8
20260503221006 49 0.0 0.0 0.00 0.00 0.00 35 1019.8
20260503220007 49 0.0 0.0 0.00 0.00 0.00 34 1019.9
20260503215006 50 0.0 0.0 0.00 0.00 0.00 35 1019.9
20260503214216 49 0.0 0.0 0.00 0.00 0.00 35 1019.9
20260503213216 49 0.0 0.0 0.00 0.00 0.00 35 1020.0
20260503212005 50 0.0 0.0 0.00 0.00 0.00 35 1019.9
20260503211006 49 0.0 0.0 0.00 0.00 0.00 35 1020.0
20260503210006 49 0.0 0.0 0.00 0.00 0.00 35 1020.0
20260503205006 49 0.0 0.0 0.00 0.00 0.00 36 1020.0
20260503204005 49 0.0 0.0 0.00 0.00 0.00 36 1020.0
20260503203006 49 0.0 0.0 0.00 0.00 0.00 38 1020.0
20260503202006 48 0.0 0.0 0.00 0.00 0.00 39 1020.0
20260503201216 46 0.0 0.0 0.00 0.00 0.00 39 1019.8
20260503200006 47 0.0 0.0 0.00 0.00 0.00 40 1019.9
20260503195007 48 0.0 0.0 0.00 0.00 0.00 41 1019.9
20260503194215 47 0.0 0.0 0.00 0.00 0.00 42 1019.9
20260503193005 46 0.0 0.0 0.00 0.00 0.00 42 1020.0
20260503192006 46 0.0 0.0 0.00 0.00 0.00 42 1020.0
20260503191006 47 0.0 0.0 0.00 0.00 0.00 42 1020.0
20260503190005 47 0.0 0.0 0.00 0.00 0.00 43 1020.0
20260503185005 47 0.0 0.0 0.00 0.00 0.00 44 1020.0
20260503184005 46 0.0 0.0 0.00 0.00 0.00 45 1019.9
20260503183007 47 0.0 0.0 0.00 0.00 0.00 46 1019.9
20260503182217 46 0.0 0.0 0.00 0.00 0.00 47 1019.8
20260503181005 46 0.0 0.0 0.00 0.00 0.00 48 1019.8
20260503180006 45 0.0 0.0 0.00 0.00 0.00 49 1019.8
20260503175006 45 0.0 0.0 0.00 0.00 0.00 50 1019.8
20260503174216 43 0.0 0.0 0.00 0.00 0.00 51 1019.9
20260503173006 42 0.0 0.0 0.00 0.00 0.00 52 1019.9
20260503172217 41 0.0 0.0 0.00 0.00 0.00 53 1019.9
20260503171007 38 0.0 0.0 0.00 0.00 0.00 54 1020.0
20260503151006 29 0.0 0.0 0.00 0.00 0.00 57 1019.8
20260503131005 27 0.0 0.0 0.00 0.00 0.00 55 1019.1